sat.trackr.live / text

‹ back to catalog

STARLINK-35150

NORAD 65635 · 2025-210P

PAYLOAD ACTIVE UNKNOWN

§ Identity

Operator
Country
US
Launch date
2025-09-18
Launch site
AFETR
Launch vehicle
Mass (kg)
RCS (m²)

Purposes: comms

External: N2YO · Heavens-Above · Gunter

§ Orbital elements

Epoch: 2026-05-24T21:17:55.072608Z

Period
94.10 min
Inclination
53.1584°
Eccentricity
0.0000864
Mean motion
15.30209686 rev/d
Perigee alt
474.6 km
Apogee alt
475.8 km
Semi-major
6,853.3 km
B*
7.5665e-4
RAAN
313.4063°
Arg perigee
73.9475°
Mean anomaly
286.1621°
Rev number
3,939

§ Raw data

STARLINK-351501 65635U 25210P   26144.88744297  .00022124  00000+0  75665-3 0  99932 65635  53.1584 313.4063 0000864  73.9475 286.1621 15.30209686 39396

JSON: /api/v1/satellites/65635 · /tle

For live sub-satellite position, see the globe view (requires WebGL).

§ Visibility from observer

Set your observer location to see the next 7 days of passes ≥ 10°. The values pass through the URL so the page stays shareable.

No JS? Fill the form by hand. The geolocation button needs JavaScript.